GORIZONT 2 [-]

Last updated on Wed Jun 28 2023 00:02:54 GMT+0000 (Coordinated Universal Time)

1 11440U 79062A 23177.74913727 -.00000205 00000+0 00000+0 0 9990 2 11440 8.4009 297.5308 0001820 241.0513 94.4071 1.00287115127116
UTC large
Height (km)
Speed (km/s)
/
Latitude / Longitude
Inclination (degrees)
Orbital Period (minutes)
Azimuth
Elevation
Range (km)
Doppler Factor

Next 0 passes for location: London (51.5072 / 0.1276)

Sorry there are no passes over London.